Location: Bushrod
(6.3500°N, 10.7833°W)
Time: 09:48:41
(UTC+00:00)

ADEOS Rocket - Pass Details

Date: 17 September 2019
Orbit: 859 x 1306 km, 98.7° (Epoch: 22 October)

Event Time Altitude Azimuth Distance (km) Brightness Sun altitude
Rises 19:30:44 0° 31° (NNE) 4,240 6.1 -12.9°
Reaches altitude 10° 19:33:45 10° 41° (NE) 3,298 5.4 -13.7°
Maximum altitude 19:40:29 33° 102° (ESE) 2,039 4.1 -15.4°
Drops below altitude 10° 19:47:10 10° 163° (SSE) 3,280 5.5 -17.0°
Sets 19:50:07 0° 172° (S) 4,214 6.2 -17.7°
